SL-14 DEB

Satellite information

Favourite Embed

Satellite Type and Status

DEBRISIN ORBIT

Key statistics

Satellite SL-14 DEB at a glance.

Uptime

14241

Days in orbit

Revolutions

≈ 14.1

Per day

Orbit

LEO

Low Earth Orbit

Inclination

82.5

Latest

Satellite identification and parameters

Extended collection of information and parameters for SL-14 DEB.

Object identification

Identified? True

Debris? True

Object name: SL-14 DEB

International designator: 1986-101G

Object number (NORAD): 17272

Object ID (CCSDS): 17272

Country: COMMONWEALTH OF INDEPENDENT STATES (CIS)

Current information (Y/N): Y

RCS size: SMALL

Orbital parameters

Period: 102.103 minutes

Inclination: 82.4871 deg

SMA: 7236.361 km

Apoapsis: 872.077 km

Periapsis: 844.374 km

RAAN: 67.3209 deg

Eccentricy: 0.00191416

Argument of periapsis: 77.5369 deg

Mean anomaly: 282.7946 deg

Mean motion: 14.1033554 rev/day

Mean motion (dot): 0.00001675 rev/day2

B* drag term: 0.0009337266 1/REarth

Two-line elements (TLE)

Creation date: Dec. 14, 2025, 3:07 a.m.

Reference frame: TEME

Reference center: EARTH

Epoch: Dec. 13, 2025, 11:28 a.m. UTC

TLE line 0: 0 SL-14 DEB

TLE line 1: 1 17272U 86101G 25347.47805973 .00001675 00000-0 93373-3 0 9996

TLE line 2: 2 17272 82.4871 67.3209 0019142 77.5369 282.7946 14.10335540991612

Live tracking on map

Real-time ground track for satellite SL-14 DEB.

In-orbit conjunctions

A list of the most updated potential collisions computed for object SL-14 DEB.

Target Orbit TCA Probability of collision Miss distance Type
METEOR 1-17 LEO 2025-10-13 02:58:36 0.0001144363 65.0 (m) PAYLOAD
CZ-6A DEB SSO 2025-09-25 21:57:12 0.0001117191 97.0 (m) DEBRIS
CZ-6A DEB SSO 2024-09-15 01:42:38 0.0003221672 55.0 (m) DEBRIS

Associated space launch

Ionospheric research satellite

SL-14 DEB was lifted into orbit during the mission ‘Tsiklon-3 | Ionozond-E’, on board a Tsiklon-3 space rocket.

The launch took place on Dec. 18, 1986, 8 a.m. from 32/2.

For more information about the launch, click the button.

Launch to space Tsiklon-3 | Ionozond-E
Tsiklon-3 | Ionozond-E

Agency: N/A

Status: Launch Successful

Launch date: Dec. 18, 1986, 8 a.m. UTC

Rocket: Tsiklon-3

Launch pad: 32/2

Location: Plesetsk Cosmodrome, Russian Federation

...

Latest news about this satellite

There are no fresh news available about this satellite. Check back as we update our databases every day.


Newsletter sign-up

Weekly statistics, charts and insights to help you stay on top of the space industry.